Regional Weather Roundup
Issued by NWS Green Bay, WI

Home | Current Version | Previous Version | Graphics & Text | Print | Product List | Glossary Off
Versions: 1 2 3 4 5 6 7 8 9 10 11 12 13 14 15 16 17 18 19 20 21 22 23 24 25 26 27 28 29 30 31 32 33 34 35 36 37 38 39 40 41 42 43 44 45 46 47 48 49 50

000
ASUS43 KGRB 181410
RWRGRB

NORTH-CENTRAL AND NORTHEAST WISCONSIN REGIONAL WEATHER ROUNDUP
NATIONAL WEATHER SERVICE GREEN BAY WI
900 AM CDT THU SEP 18 2014

WIZ005-009-010>012-018-019-181500-
NORTH CENTRAL WISCONSIN

CITY           SKY/WX    TMP DP  RH WIND       PRES   REMARKS
IRONWOOD       CLOUDY    39  37  93 E6        30.15S
MANITOWISH WTR CLOUDY    41  40  99 SE5       30.16R
ARBOR VITAE    CLOUDY    42  39  88 SE8       30.17R
EAGLE RIVER    CLOUDY    39  37  92 SE5       30.17S
LAND O LAKES   CLOUDY    39  35  86 E7        30.19R
RHINELANDER    CLOUDY    39  37  92 E9        30.18R
PHILLIPS       CLOUDY    45  43  93 SE7       30.15R FOG
ANTIGO         CLOUDY    38  36  92 E7        30.19R
TOMAHAWK       CLOUDY    43  40  90 CALM      30.18R
MERRILL        CLOUDY    43  42  95 S8        30.18R
$$

WIZ013-073-181500-
NORTHEAST WISCONSIN

CITY           SKY/WX    TMP DP  RH WIND       PRES   REMARKS
IRON MOUNTAIN  PTSUNNY   43  33  68 VRB7      30.19S
MARINETTE      CLOUDY    45  36  70 N7        30.19R
OCONTO         CLOUDY    45  38  76 N8        30.20R
$$

WIZ017-030-035>037-045-181500-
CENTRAL WISCONSIN

CITY           SKY/WX    TMP DP  RH WIND       PRES   REMARKS
MEDFORD        CLOUDY    44  43  97 E6        30.16R FOG
WAUSAU         CLOUDY    42  40  92 E8        30.18R
MOSINEE        CLOUDY    43  43 100 E8        30.19R
MARSHFIELD     CLOUDY    44  43  96 E12       30.17R FOG
WISC RAPIDS    CLOUDY    46  43  89 E12       30.19R
STEVENS POINT  CLOUDY    42  39  90 E9        30.19R
WAUPACA        CLOUDY    47  43  85 NE8       30.21R
SHAWANO        CLOUDY    45  38  74 NE9       30.21R
CLINTONVILLE   CLOUDY    45  37  76 NE6       30.21R
$$

WIZ038-039-048-051-181500-
FOX VALLEY

CITY           SKY/WX    TMP DP  RH WIND       PRES   REMARKS
NWS GREEN BAY  CLOUDY    46  39  76 N8        30.20R
APPLETON       CLOUDY    45  37  76 NE7       30.19R
OSHKOSH        CLOUDY    48  44  86 E10       30.19R
FOND DU LAC    CLOUDY    48  43  82 NE8       30.19R
$$

WIZ022-050-052-181500-
EAST CENTRAL WISCONSIN

CITY           SKY/WX    TMP DP  RH WIND       PRES   REMARKS
STURGEON BAY   MOSUNNY   48  39  71 NE8       30.20R
MANITOWOC      CLOUDY    48  43  82 VRB5      30.19R
SHEBOYGAN      CLOUDY    49  43  80 N6        30.18R
$$

LMZ563-521-522-541>543-181500-
LAKESHORE

STATION/POSITION TIME  TEMP    WIND        PRES    VSBY  WAVE
                       AIR SEA DIR/SP/G                  HT/PER
                 (UTC) (F)     (DEG/KT/KT) (MB)    (MI)  (FT/S)
SHEBOYGAN LKSHOR 1400   47 48  350/ 13/ 15 1022.5R
KEWAUNEE LKSHORE 1400   47      20/  7/ 11 1021.0R
NORTHPORT PIER   1400   48      20/  7/ 13 1022.4S
N MID LAKE BUOY  1400   49 58   40/ 10/ 14 1022.3R         2/ 4
S GREEN BAY BUOY 1400   47     VRB 12/ 16  1023.2R
CHAMBERS ISLAND  1400   47      30/  8/ 11 1022.7R
MENOMINEE LKSHOR 1400   46     360/ 11/ 12 1022.8S
$$



USA.gov is the U.S. government's official web portal to all federal, state and local government web resources and services.